GFSNGP_2pvu_pres_195.txt.gz
Presure
238 256 217 219 222 223 229 119 96 248 252 263 279 389 379 379 348 374 362 342 330 336 364 328 325 333 292 279 275 219 240 240 239 227 234 220 232 226 226 222 225 214 215 202
245 216 142 209 230 240 247 253 264 279 416 398 366 351 349 335 341 323 339 335 341 358 336 305 298 275 280 269 251 235 228 230 239 236 223 229 217 215 225 218 226 217 218 213
68 230 233 232 242 255 267 313 397 398 371 361 342 326 322 329 318 319 313 309 314 340 319 301 285 263 270 252 255 236 256 237 232 245 229 228 228 225 219 228 225 221 216 224
243 247 253 257 281 390 385 369 346 351 347 339 325 319 317 307 311 301 310 304 299 313 329 287 270 248 253 248 248 244 231 225 233 250 237 239 224 217 215 228 225 219 218 215
264 271 436 397 383 376 337 329 343 335 324 307 325 333 319 306 291 300 294 307 299 303 310 275 260 255 245 235 240 234 243 241 236 224 256 218 238 223 223 224 224 229 236 223
445 457 395 364 345 340 325 317 318 292 302 306 304 299 303 302 299 297 292 292 301 297 304 276 261 256 235 236 244 239 237 239 240 252 260 252 250 238 235 237 241 231 230 258
422 402 360 342 329 316 303 289 300 285 288 289 302 294 293 297 298 298 290 287 294 291 301 279 262 246 246 249 232 245 235 237 238 240 239 241 262 216 225 239 248 258 250 253
437 361 337 316 311 306 301 288 295 276 299 295 290 279 289 284 283 282 284 276 275 288 285 266 266 249 246 247 240 242 233 229 233 227 226 236 234 235 257 246 238 258 250 249
370 328 319 313 300 297 292 301 278 285 282 285 282 278 291 267 264 276 279 269 295 296 305 279 258 264 242 247 252 254 245 250 250 247 246 257 248 257 256 256 249 272 263 252
329 314 308 293 292 284 289 283 282 270 273 289 292 279 290 283 278 275 272 287 270 272 279 310 303 262 256 255 263 264 261 248 244 245 241 239 241 236 249 256 269 269 277 297
307 300 300 287 285 284 281 277 280 279 282 281 283 279 274 283 273 286 280 296 284 264 276 277 301 325 323 278 257 271 250 249 248 261 258 256 270 271 262 268 261 283 279 268
294 293 295 286 287 294 286 288 275 281 276 274 278 279 289 296 275 285 288 267 289 276 314 283 268 255 288 286 280 288 305 322 299 281 278 279 279 290 283 276 272 264 256 255
305 289 289 282 292 292 289 295 276 285 251 270 275 273 293 292 276 263 261 277 285 289 305 361 368 272 253 275 267 274 288 297 291 267 264 268 276 274 266 258 255 256 255 253
287 305 291 287 279 278 286 284 288 294 269 295 267 294 283 311 318 331 312 318 352 330 336 344 300 290 285 285 271 266 253 271 271 268 266 263 261 255 251 250 250 249 252 257
289 282 282 299 283 282 284 285 268 289 282 278 302 317 296 300 308 316 353 335 322 317 325 293 278 321 287 275 277 266 272 262 260 258 259 254 251 248 247 242 240 253 255 249
292 295 292 285 291 271 279 282 283 284 321 315 298 288 291 308 310 317 304 301 292 305 316 299 292 286 276 270 260 255 253 260 257 254 250 244 240 240 243 247 252 252 245 248
279 279 275 271 268 284 287 280 305 302 291 285 275 286 315 303 316 293 288 299 293 302 296 288 270 276 275 264 258 250 252 250 248 240 240 241 247 245 247 244 250 250 250 246
275 276 283 284 296 301 309 304 297 298 290 279 287 288 298 301 302 292 289 286 290 291 283 273 264 257 263 262 250 240 242 252 240 238 238 257 253 249 246 252 242 246 253 246
290 288 288 292 292 291 300 293 290 289 296 274 284 285 296 295 297 279 282 283 291 282 272 267 257 255 253 264 262 260 261 242 238 240 240 249 246 250 247 243 252 250 252 263
297 288 280 285 296 298 295 277 295 296 296 283 285 282 289 303 303 281 277 276 281 281 275 263 253 257 269 240 264 238 227 230 248 245 245 247 249 239 249 246 258 254 255 254
287 287 285 292 290 290 284 287 293 310 294 288 278 281 278 288 300 281 274 272 266 281 253 264 251 272 241 263 267 251 253 250 241 239 247 250 241 250 246 250 249 250 250 249
299 299 299 300 300 303 296 281 287 295 307 297 284 280 280 275 293 288 275 272 268 267 266 254 253 253 260 260 257 245 242 249 260 259 257 260 250 247 243 250 241 244 247 249
273 265 277 295 307 307 310 313 314 305 294 312 298 286 281 282 274 287 286 277 272 270 262 265 261 262 263 263 261 258 258 258 258 260 257 250 247 245 241 247 247 246 250 249
258 262 270 277 262 269 289 311 316 320 322 299 319 303 289 278 282 274 284 281 282 270 269 270 268 270 269 267 267 263 262 264 262 252 250 247 249 249 249 250 251 248 251 250
264 259 257 257 262 275 289 270 282 318 325 331 326 329 307 293 283 279 277 274 280 279 275 277 279 277 273 267 266 270 262 257 258 256 253 250 251 253 252 252 252 253 255 262
278 268 268 268 260 257 258 266 284 271 285 325 340 330 337 311 298 285 279 277 278 280 280 280 275 271 267 263 261 260 259 258 257 256 255 256 257 258 256 257 256 257 268 274
323 319 302 265 273 272 261 259 259 265 289 263 300 339 334 337 317 303 291 278 277 275 271 266 256 248 252 253 254 256 256 254 255 260 259 261 258 258 261 261 269 275 268 263

GFSNGP_2pvu_pres_198.txt.gz
Presure
214 254 249 251 242 229 230 231 232 236 148 261 266 275 296 361 363 355 360 355 349 357 353 344 329 328 324 324 320 176 255 300 284 276 281 256 241 251 237 234 230 228 221 214
78 256 256 254 217 225 227 238 256 259 295 339 398 396 374 363 349 342 325 334 323 317 330 319 314 348 332 327 318 318 302 275 255 252 250 242 238 244 238 219 228 219 226 215
267 267 263 232 238 251 263 279 398 389 374 364 368 352 340 346 333 315 319 321 306 310 317 328 326 312 311 304 292 282 280 259 249 250 246 235 240 240 225 226 237 235 215 221
229 236 256 259 265 275 426 396 382 353 358 335 322 322 328 318 306 299 301 295 298 295 317 300 303 301 276 274 264 273 255 248 245 245 240 233 234 227 234 228 226 218 229 223
257 264 273 273 445 407 390 351 328 341 324 312 310 307 313 317 313 302 292 294 292 297 290 285 292 275 259 264 260 256 250 244 239 238 237 229 228 219 232 228 218 226 226 225
278 363 508 477 407 377 334 321 326 314 302 289 289 283 298 289 295 297 295 291 286 287 284 292 281 263 259 260 258 256 238 253 237 231 245 222 228 231 242 235 226 224 227 226
446 471 484 375 359 336 332 320 305 299 286 282 293 292 298 292 296 292 292 291 285 287 281 280 265 259 260 249 248 249 228 244 244 225 243 230 226 239 239 239 247 237 229 222
521 477 374 340 328 326 315 304 292 297 288 279 275 302 282 275 280 286 276 289 285 276 290 287 276 258 250 243 250 235 250 232 226 240 246 239 248 257 237 238 241 233 236 232
466 371 335 332 321 304 309 305 303 291 283 267 290 286 287 277 283 283 264 265 289 278 287 266 300 256 255 244 244 244 235 239 240 234 236 241 250 253 253 256 250 237 239 236
369 332 316 320 307 302 290 312 285 282 282 275 273 270 264 272 279 284 275 271 280 288 275 291 297 252 259 252 244 242 241 237 239 243 245 250 242 242 242 257 244 253 234 253
321 314 314 312 301 293 288 284 295 286 285 282 279 279 287 283 282 268 286 272 285 287 300 282 288 288 261 263 257 247 240 250 251 254 237 232 238 235 225 224 227 246 236 249
313 308 310 304 297 287 279 278 288 295 283 280 273 284 290 286 274 287 286 278 283 289 288 298 276 309 307 262 265 253 246 238 238 242 248 242 239 241 242 244 240 237 242 241
298 300 299 294 281 283 280 294 288 300 288 299 259 279 286 290 286 291 287 302 299 324 284 298 279 292 306 322 256 268 255 251 248 245 233 233 235 241 222 229 235 242 244 238
298 285 297 290 285 287 286 284 284 285 274 266 282 280 298 287 285 303 312 312 316 328 321 338 346 300 331 248 308 291 269 262 264 240 242 236 240 245 248 250 267 250 261 285
303 285 272 284 292 287 277 262 282 269 290 272 275 324 315 304 301 297 307 313 345 340 326 327 330 337 309 264 276 262 281 292 288 289 274 257 260 272 283 272 269 272 263 258
286 287 295 297 293 285 277 273 280 297 298 315 312 303 297 294 298 302 313 313 302 305 305 311 324 341 306 284 264 259 266 288 266 279 268 268 271 267 265 265 257 253 252 250
283 287 285 278 272 283 279 287 299 310 307 300 295 288 284 292 298 293 307 291 295 291 293 307 306 271 313 267 271 270 277 262 247 263 264 257 253 252 252 251 249 249 249 246
280 300 281 295 295 291 292 292 294 302 294 295 294 279 282 286 290 301 295 286 298 286 296 304 280 279 311 269 263 268 259 251 257 261 260 257 245 240 244 246 248 248 244 247
287 291 294 300 287 285 278 286 295 292 281 291 299 282 278 284 289 294 291 281 291 289 292 284 275 273 272 271 255 261 257 255 244 252 251 249 244 243 238 242 242 253 248 251
293 288 285 287 286 287 285 288 287 294 278 284 303 295 275 284 282 291 293 282 287 284 279 277 263 264 264 253 264 262 252 252 255 241 241 247 247 232 240 237 235 254 249 240
291 298 302 301 300 305 303 305 299 292 289 284 286 304 290 276 285 280 308 283 280 285 285 273 274 261 261 261 262 263 262 262 255 258 259 248 239 235 240 242 246 247 237 246
259 263 267 264 270 272 283 302 306 309 313 305 298 301 310 289 281 280 288 295 276 278 285 280 274 252 261 257 258 253 259 251 252 264 277 258 249 243 237 237 246 261 257 252
261 260 258 257 259 263 270 269 268 274 292 315 315 316 310 317 293 284 282 292 291 277 276 283 276 262 252 254 258 253 260 251 264 253 247 243 239 247 257 261 261 253 247 248
270 271 268 262 261 257 257 258 262 273 281 267 285 304 327 335 323 299 287 285 289 291 276 278 267 269 274 266 249 252 254 259 260 254 259 261 265 264 264 263 252 251 247 247
303 301 297 287 281 278 270 265 264 259 262 271 282 275 300 326 342 341 304 287 289 286 291 281 275 274 269 265 265 266 265 266 267 270 268 263 258 260 255 255 253 250 251 253
285 286 289 294 304 312 318 309 285 274 267 260 262 274 286 285 328 343 343 309 289 288 283 282 285 283 275 270 265 263 262 265 266 265 261 264 260 256 253 253 254 255 257 259
300 299 295 288 285 287 291 300 325 345 321 276 264 265 264 282 267 333 349 349 317 296 284 285 283 279 279 277 273 271 271 269 265 264 257 254 253 252 250 249 251 251 259 263

GFSNGP_2pvu_pres_204.txt.gz
Presure
204 213 210 222 213 218 223 235 244 254 256 268 274 264 265 275 312 413 403 410 337 288 298 343 332 319 321 332 313 298 304 313 334 322 325 332 340 342 333 229 318 277 275 262
216 220 222 219 215 224 241 248 258 264 269 256 264 282 315 394 364 370 357 327 316 300 316 308 307 301 318 315 299 295 294 321 316 323 334 345 353 359 372 336 347 322 322 357
228 219 227 228 229 253 260 273 276 275 271 299 358 441 369 347 329 316 317 302 305 297 299 288 304 292 300 317 328 325 305 309 323 360 332 326 332 339 352 310 301 290 317 289
221 224 239 244 268 270 286 278 279 307 480 462 420 367 343 314 277 287 284 308 306 286 290 301 288 294 301 292 288 287 291 315 320 336 319 298 290 298 311 306 299 292 292 255
233 242 263 280 286 282 314 404 444 462 401 385 373 345 324 300 282 284 307 313 293 287 276 289 288 289 299 283 280 286 291 291 276 275 278 284 286 267 265 266 266 273 280 291
254 276 289 301 445 429 418 402 466 386 367 349 335 320 306 294 296 287 293 291 283 306 293 284 286 282 286 276 278 278 283 266 265 258 255 262 249 261 246 259 265 262 256 251
312 400 412 385 388 407 424 469 364 357 350 341 310 294 289 286 283 275 276 277 288 287 305 290 288 277 275 272 272 272 270 250 252 250 261 249 246 251 257 243 252 249 242 235
444 435 424 420 424 444 464 366 342 346 318 301 299 291 280 284 273 280 275 286 272 279 303 277 286 283 266 263 263 267 254 252 239 261 250 228 239 246 240 237 237 238 232 236
431 435 434 430 481 453 358 348 342 345 304 291 294 279 274 274 281 282 273 286 274 278 278 291 293 276 269 262 256 264 249 247 247 238 237 235 242 247 233 239 231 229 233 225
459 442 497 468 357 349 343 328 347 314 298 295 283 283 280 272 277 273 263 263 280 273 283 285 301 288 286 262 249 258 245 241 245 235 242 236 234 237 247 236 234 236 227 226
381 373 363 347 329 324 327 323 305 296 286 289 286 281 282 281 283 281 276 285 277 265 282 286 292 298 303 262 255 262 251 246 236 247 248 240 242 235 237 234 232 246 228 225
356 348 333 310 323 309 306 311 302 292 287 298 282 294 288 287 278 283 286 282 267 267 289 289 297 301 302 271 264 256 250 263 237 241 235 246 241 228 225 240 241 234 229 226
306 333 306 303 292 300 306 305 304 284 279 280 286 273 271 283 288 291 270 298 286 301 311 308 316 307 281 336 258 268 263 245 256 237 247 242 214 237 239 240 241 250 242 242
307 323 311 284 297 303 275 297 289 288 285 285 283 286 303 294 289 278 297 292 305 328 326 299 312 320 350 369 342 267 247 262 250 253 249 248 249 229 242 249 238 248 253 215
305 308 289 289 287 281 280 285 290 291 286 284 275 284 285 294 304 320 312 309 305 301 297 307 316 314 317 340 292 359 279 241 256 258 249 240 239 248 247 236 232 231 221 224
303 300 302 298 293 295 292 286 292 281 275 275 286 279 299 308 311 306 301 296 288 298 309 304 300 304 312 320 335 349 365 276 236 253 229 249 245 233 233 223 224 229 227 236
291 293 292 283 291 290 274 290 289 283 292 292 293 290 292 299 299 305 292 292 290 299 300 290 290 295 304 319 334 342 278 314 270 251 257 239 244 243 237 237 233 232 226 229
299 298 291 290 291 293 288 288 288 293 298 297 294 291 288 299 299 303 296 290 289 296 295 284 285 291 295 314 334 304 287 277 275 280 248 249 257 231 231 226 234 234 236 230
262 265 282 284 304 303 303 304 305 305 303 309 313 311 296 293 298 293 307 296 285 298 284 282 285 290 290 314 334 288 278 289 288 272 285 259 246 251 247 235 234 233 237 244
269 267 262 260 260 263 265 265 268 274 276 279 288 295 301 331 313 305 288 315 292 294 293 280 281 290 279 304 281 279 275 267 273 241 246 274 275 272 263 248 239 246 246 254
274 271 269 267 267 265 264 261 258 259 263 266 266 269 273 282 294 316 313 295 312 285 301 281 279 290 274 293 263 267 273 267 260 260 257 248 246 247 266 262 263 264 261 253
293 290 287 286 286 284 282 274 266 263 262 258 256 258 262 266 269 274 288 313 320 314 288 297 280 286 280 284 263 258 256 259 262 252 251 254 260 258 264 258 258 260 247 252
301 305 307 303 303 304 304 304 298 301 294 283 272 264 261 259 260 262 272 278 298 329 316 293 290 279 279 282 277 268 271 265 262 262 261 257 259 254 254 252 244 253 244 239
300 306 307 304 298 298 299 288 283 290 302 306 311 313 312 274 268 262 261 268 273 280 330 325 303 294 283 274 279 273 271 276 272 265 263 255 253 257 262 252 256 252 260 249
320 316 311 304 302 304 309 309 305 302 296 288 283 282 286 289 294 312 272 262 264 270 274 308 330 304 274 283 271 278 275 270 272 274 272 264 259 255 257 265 263 258 251 243
334 331 328 328 327 326 322 317 310 309 310 313 315 312 296 288 289 290 297 312 272 260 271 271 299 333 299 302 291 280 275 276 275 270 267 263 268 266 269 255 250 249 253 251
343 344 343 342 341 340 339 337 334 331 326 320 316 314 314 318 322 290 291 294 304 285 262 266 270 293 341 304 290 294 282 280 270 271 273 273 273 267 248 249 248 249 248 248

GFSNGP_2pvu_pres_210.txt.gz
Presure
186 191 207 186 192 199 193 193 204 223 227 242 261 262 258 264 275 284 292 312 505 428 391 383 385 361 345 334 335 325 316 310 309 330 321 324 341 295 339 363 348 369 371 217
195 196 200 194 195 201 209 210 223 240 252 275 271 270 274 290 301 316 503 502 371 373 351 347 329 323 318 326 311 303 325 302 306 312 328 333 323 322 323 321 323 333 337 412
208 206 211 206 215 220 217 228 243 279 282 278 290 270 306 308 350 379 347 335 333 319 298 299 319 317 292 304 291 298 302 292 305 291 299 305 318 321 321 333 308 311 321 369
209 208 221 225 229 238 244 234 304 299 308 315 325 319 369 454 364 346 335 317 324 316 311 294 285 279 288 295 300 299 301 299 287 288 290 299 305 312 313 320 326 335 328 330
218 221 218 231 238 241 271 330 261 338 444 438 445 413 417 364 343 331 322 313 297 297 291 287 291 286 312 303 291 297 293 281 288 279 279 275 289 293 319 355 327 318 317 335
199 235 220 238 340 341 345 469 416 408 416 407 411 442 409 336 326 318 314 299 301 297 296 287 293 289 302 293 301 287 287 279 272 274 277 273 286 286 291 295 305 303 305 308
214 231 234 320 413 430 432 391 411 413 422 419 411 390 373 323 314 315 311 302 291 288 297 269 287 289 281 281 303 294 277 268 273 263 262 266 263 276 284 280 298 303 312 327
239 250 415 444 433 418 409 420 427 418 419 438 397 356 329 303 300 304 307 292 294 284 277 264 271 284 272 297 293 306 275 265 267 261 261 267 263 259 258 269 285 293 301 295
254 471 460 450 448 454 464 468 460 476 465 365 326 318 305 302 293 299 296 310 285 279 277 274 283 289 276 299 284 297 274 263 263 260 260 252 251 250 263 254 264 270 273 290
516 499 500 481 431 403 407 391 400 378 333 323 310 313 314 290 286 287 288 283 281 284 288 270 279 283 285 284 307 303 272 264 263 261 252 248 256 241 251 252 255 251 265 272
413 391 398 363 352 370 363 358 335 327 313 309 307 302 307 302 284 282 275 281 277 287 296 278 284 287 291 286 288 284 277 263 264 258 246 257 249 249 254 252 245 257 260 259
364 356 360 340 344 341 335 330 322 316 313 300 301 296 287 286 291 288 276 278 279 277 281 279 284 292 294 305 320 333 321 273 275 267 259 254 254 249 245 247 230 251 232 251
312 358 336 334 325 320 329 321 315 309 316 287 299 290 289 285 281 285 273 277 293 284 278 288 302 318 287 296 330 331 355 288 277 261 264 251 251 259 248 240 227 234 228 236
299 295 342 324 322 325 311 310 306 312 315 291 299 301 296 279 279 286 286 286 288 301 309 323 327 327 321 317 314 312 315 339 286 273 262 261 250 261 245 250 239 249 233 242
300 298 293 282 298 308 314 307 297 296 289 293 300 289 290 285 284 290 287 295 281 297 305 306 310 308 308 305 322 319 317 281 307 274 260 264 263 252 262 235 243 229 250 235
299 297 293 284 282 276 282 282 298 292 286 286 285 287 288 288 289 284 287 292 296 290 302 303 307 302 299 304 310 303 299 306 337 283 269 252 263 260 250 251 224 227 232 242
303 300 296 291 289 283 279 272 272 272 268 262 297 297 300 298 297 300 302 307 297 301 294 297 292 306 294 299 300 301 300 294 309 333 286 276 266 264 249 256 242 252 228 224
306 299 297 294 293 293 289 283 281 275 272 271 267 263 261 295 303 308 315 310 307 305 312 305 300 305 299 294 298 297 293 300 327 345 351 279 271 267 263 247 244 256 241 241
316 310 306 302 296 296 294 291 290 290 287 283 275 271 266 262 261 261 265 273 279 288 297 303 321 300 305 290 298 294 292 333 342 346 321 357 279 265 263 256 248 248 235 235
305 302 314 319 315 311 308 306 296 293 294 292 288 289 284 272 269 266 262 262 262 269 275 279 299 330 314 300 297 291 291 318 315 310 312 353 318 272 260 251 254 237 240 240
308 308 308 304 297 302 319 317 315 312 307 305 304 299 299 300 298 285 274 269 262 262 264 270 275 285 330 309 303 290 294 305 295 297 301 277 306 280 260 260 245 250 254 253
304 310 316 319 319 327 328 322 318 317 321 322 318 307 305 308 306 309 310 303 277 268 266 263 266 268 279 320 305 293 289 303 295 295 292 274 270 310 266 254 245 248 246 248
321 326 330 333 334 333 332 332 334 337 339 337 334 331 334 329 312 306 310 313 316 309 286 268 270 263 265 276 316 305 291 301 300 291 284 283 294 288 296 277 261 248 241 240
348 349 348 347 347 344 345 346 343 339 339 347 345 342 341 340 345 339 321 306 306 289 317 313 290 270 266 263 271 311 297 292 302 293 283 279 292 280 273 282 277 275 264 240
375 374 371 369 367 367 367 365 364 363 363 365 366 363 361 357 349 337 342 345 333 313 309 285 319 313 277 272 259 267 326 297 296 300 290 278 254 271 276 278 276 273 272 274
378 378 377 376 374 370 370 371 371 371 372 371 370 368 368 372 369 361 353 345 343 342 334 314 296 288 308 312 275 263 263 300 295 298 295 285 273 285 260 271 262 264 270 267
386 391 398 405 411 412 410 403 397 391 384 379 374 369 370 369 367 368 368 363 360 353 345 336 320 309 281 289 306 284 266 262 272 299 302 292 292 278 269 275 257 275 270 261